This demonstration page uses our WeatherBlox Daily Observations layout. Learn more.

Left ArrowRight Arrow

40.92501, -98.34201

Hourly Observations for February 15, 2015

Temp ( °F °C ) Dew Point ( °F °C ) Humidity (%) Winds ( mph kmh ) Pressure ( in mb ) Visibility ( mi km ) Precip ( " mm )
12:53 am 00:53 Clear 16 -8.9 2 -16.7 54 54 E 7 11 30.45 1031 10 16 0.00 0.00
1:53 am 01:53 Cloudy 16 -8.9 3 -16.1 56 56 E 7 11 30.46 1032 10 16 0.00 0.00
2:53 am 02:53 Cloudy 16 -8.9 3 -16.1 56 56 E 8 13 30.44 1031 10 16 0.00 0.00
3:53 am 03:53 Cloudy 15 -9.4 4 -15.6 61 61 E 12 19 30.43 1031 10 16 0.00 0.00
4:53 am 04:53 Cloudy 14 -10 3 -16.1 61 61 ESE 14 22 30.42 1030 10 16 0.00 0.00
5:53 am 05:53 Cloudy 13 -10.6 3 -16.1 64 64 SE 12 19 30.42 1030 10 16 0.00 0.00
6:53 am 06:53 Cloudy 13 -10.6 3 -16.1 64 64 ESE 14 22 30.39 1029 10 16 0.00 0.00
7:53 am 07:53 Cloudy 13 -10.6 3 -16.1 64 64 ESE 12 19 30.41 1030 10 16 0.00 0.00
8:53 am 08:53 Cloudy 14 -10 2 -16.7 58 58 ESE 9 15 30.42 1030 10 16 0.00 0.00
9:53 am 09:53 Cloudy 14 -10 2 -16.7 58 58 SE 10 17 30.42 1030 10 16 0.00 0.00
10:53 am 10:53 Cloudy 15 -9.4 2 -16.7 56 56 SSE 8 13 30.42 1030 10 16 0.00 0.00
11:53 am 11:53 Cloudy 15 -9.4 3 -16.1 59 59 SE 6 9 30.41 1030 10 16 0.00 0.00
12:53 pm 12:53 Cloudy 17 -8.3 3 -16.1 54 54 S 7 11 30.38 1029 10 16 0.00 0.00
1:29 pm 13:29 Cloudy 17 -8.3 3 -16.1 54 54 SSW 6 9 30.42 1030 10 16 0.00 0.00
1:45 pm 13:45 Cloudy 18 -7.8 4 -15.6 54 54 S 3 6 30.39 1029 10 16 0.00 0.00
1:53 pm 13:53 Cloudy 18 -7.8 4 -15.6 54 54 SE 7 11 30.35 1028 10 16 0.00 0.00
2:53 pm 14:53 Cloudy 19 -7.2 4 -15.6 51 51 SSW 6 9 30.33 1027 10 16 0.00 0.00
3:53 pm 15:53 Mostly Cloudy 20 -6.7 3 -16.1 48 48 Calm 30.31 1026 10 16 0.00 0.00
4:15 pm 16:15 Cloudy 20 -6.7 3 -16.1 48 48 Calm 30.36 1028 10 16 0.00 0.00
4:53 pm 16:53 Cloudy 20 -6.7 4 -15.6 50 50 Calm 30.30 1026 10 16 0.00 0.00
5:02 pm 17:02 Cloudy 20 -6.7 4 -15.6 50 50 Calm 30.36 1028 10 16 0.00 0.00
5:13 pm 17:13 Cloudy 19 -7 3 -16 49 49 NNW 6 9 30.36 1028 10 16 0.00 0.00
5:29 pm 17:29 Cloudy 20 -6.7 5 -15 52 52 Calm 30.36 1028 10 16 0.00 0.00
5:53 pm 17:53 Cloudy 20 -6.7 5 -15 52 52 Calm 30.31 1026 10 16 0.00 0.00
6:21 pm 18:21 Cloudy 21 -6 5 -15 49 49 Calm 30.36 1028 10 16 0.00 0.00
6:50 pm 18:50 Partly Cloudy 19 -7 7 -14 58 58 Calm 30.36 1028 10 16 0.00 0.00
6:53 pm 18:53 Mostly Clear 19 -7.2 7 -13.9 59 59 NE 3 6 30.32 1027 10 16 0.00 0.00
7:53 pm 19:53 Clear 19 -7.2 7 -13.9 59 59 ESE 3 6 30.32 1027 10 16 0.00 0.00
8:53 pm 20:53 Clear 20 -6.7 7 -13.9 57 57 SSE 7 11 30.34 1027 10 16 0.00 0.00
9:53 pm 21:53 Clear 19 -7.2 7 -13.9 59 59 SSE 6 9 30.33 1027 10 16 0.00 0.00
10:53 pm 22:53 Clear 18 -7.8 7 -13.9 62 62 S 6 9 30.31 1026 10 16 0.00 0.00
11:53 pm 23:53 Clear 18 -8 9 -13 68 68 S 6 9 30.33 1027 10 16 0.00 0.00

Powered by AerisWeather